Regional Weather Roundup
Issued by NWS

Home | Current Version | Previous Version | Text Only | Print | Product List | Glossary Off
Versions: 1 2 3 4 5 6 7 8 9 10 11 12 13 14 15 16 17 18 19 20 21 22 23 24 25 26 27 28 29 30 31 32 33 34 35 36 37 38 39 40 41 42 43 44 45 46 47 48 49 50

000
ASUS43 KLMK 300402
RWRKY
KENTUCKY REGIONAL WEATHER ROUNDUP
NATIONAL WEATHER SERVICE LOUISVILLE KY
1200 AM EDT SAT JUL 30 2016

NOTE "FAIR" INDICATES FEW OR NO CLOUDS BELOW 12,000 FEET
WITH NO SIGNIFICANT WEATHER AND/OR OBSTRUCTIONS TO VISIBILITY.

KYZ001>023-026-027-061>063-070>075-300500-
WESTERN AND SOUTH CENTRAL KENTUCKY

CITY           SKY/WX    TMP DP  RH WIND       PRES   REMARKS
PADUCAH        CLOUDY    73  71  93 SW5       29.94S
HENDERSON      MOCLDY    73  70  88 CALM      29.91F
OWENSBORO      MOCLDY    74  74 100 CALM      29.93F
HOPKINSVILLE   CLOUDY    74  72  93 S5        29.92F
BOWLING GREEN  PTCLDY    76  71  85 SW5       29.95F
GLASGOW        NOT AVBL
$$

KYZ024-025-028>034-038-045-046-053-300500-
NORTH CENTRAL KENTUCKY

CITY           SKY/WX    TMP DP  RH WIND       PRES   REMARKS
LOUISVILLE/SDF MOCLDY    76  73  91 SW8       29.93F
LOUISVILLE/LOU MOCLDY    77  73  87 S5        29.93F
FORT KNOX      PTCLDY    72  70  95 SW3       29.93F
$$

KYZ035>037-039>044-047>052-055>060-089>105-300500-
NORTHEAST KENTUCKY

CITY           SKY/WX    TMP DP  RH WIND       PRES   REMARKS
LEXINGTON      MOCLDY    73  69  87 SW8       29.95F
COVINGTON      CLOUDY    71  70  96 CALM      29.94F
FRANKFORT      MOCLDY    73  69  87 S3        29.94F
$$

KYZ054-064>069-076>088-106>120-300500-
SOUTHEAST KENTUCKY

CITY           SKY/WX    TMP DP  RH WIND       PRES   REMARKS
JACKSON        MOCLDY    71  69  93 CALM      30.00S
LONDON         CLEAR     71  67  87 S5        29.99F
SOMERSET       MOCLDY    70  70 100 CALM      29.99F
MIDDLESBORO    MOCLDY    69  68  98 NW3       30.02F
MONTICELLO     CLOUDY   N/A N/A N/A W10       30.00F
$$





USA.gov is the U.S. government's official web portal to all federal, state and local government web resources and services.